• In Schweiz
  • Länderverzeichnis
  • Für 7 Tage
  • Wassertemperatur
  • Satellitenkarten
  • Wetterkarte
  • Widgets
  • user-avatar
    Anmelden

    Stündliche Wetter Serhiivka

    Heute, 18 Juli, Mittwoch

    Zeit Temperatur Niederschläge Wind Luftdruck Luftfeuchtigkeit
    00:00 +22°C° 0,1 mm 4 m/S 751 mmHg 72%
    01:00 +22°C° 0,1 mm 4 m/S 751 mmHg 74%
    02:00 +21°C° 0 mm 3 m/S 751 mmHg 79%
    03:00 +21°C° 0,1 mm 3 m/S 751 mmHg 78%
    04:00 +21°C° 0,1 mm 3 m/S 751 mmHg 78%
    05:00 +21°C° 0,1 mm 2 m/S 751 mmHg 78%
    06:00 +24°C° 0 mm 3 m/S 751 mmHg 69%
    07:00 +26°C° 0 mm 3 m/S 751 mmHg 60%
    08:00 +28°C° 0 mm 3 m/S 751 mmHg 52%
    09:00 +29°C° 0 mm 4 m/S 750 mmHg 48%
    10:00 +30°C° 0 mm 4 m/S 750 mmHg 44%
    11:00 +32°C° 0 mm 4 m/S 750 mmHg 40%
    12:00 +32°C° 0 mm 4 m/S 750 mmHg 40%
    13:00 +33°C° 0 mm 5 m/S 750 mmHg 40%
    14:00 +33°C° 0 mm 5 m/S 750 mmHg 39%
    15:00 +32°C° 0 mm 5 m/S 750 mmHg 40%
    16:00 +32°C° 0 mm 4 m/S 750 mmHg 40%
    17:00 +32°C° 0 mm 4 m/S 750 mmHg 41%
    18:00 +29°C° 0 mm 4 m/S 750 mmHg 46%
    19:00 +28°C° 0 mm 3 m/S 750 mmHg 51%
    20:00 +26°C° 0 mm 3 m/S 750 mmHg 55%
    21:00 +25°C° 0 mm 3 m/S 750 mmHg 59%
    22:00 +25°C° 0 mm 3 m/S 750 mmHg 63%
    23:00 +24°C° 0 mm 3 m/S 750 mmHg 67%

    Morgen, 19 Juli, Donnerstag

    Zeit Temperatur Niederschläge Wind Luftdruck Luftfeuchtigkeit
    00:00 +24°C° 0 mm 3 m/S 750 mmHg 69%
    01:00 +23°C° 0 mm 2 m/S 750 mmHg 72%
    02:00 +23°C° 0 mm 2 m/S 750 mmHg 74%
    03:00 +23°C° 0 mm 2 m/S 750 mmHg 75%
    04:00 +23°C° 0 mm 2 m/S 750 mmHg 76%
    05:00 +23°C° 0 mm 2 m/S 750 mmHg 76%
    06:00 +25°C° 0 mm 2 m/S 750 mmHg 68%
    07:00 +27°C° 0 mm 2 m/S 750 mmHg 61%
    08:00 +28°C° 0 mm 2 m/S 750 mmHg 53%
    09:00 +29°C° 0 mm 2 m/S 751 mmHg 48%
    10:00 +31°C° 0 mm 2 m/S 751 mmHg 44%
    11:00 +32°C° 0 mm 2 m/S 751 mmHg 40%
    12:00 +33°C° 0 mm 3 m/S 751 mmHg 40%
    13:00 +33°C° 0 mm 3 m/S 751 mmHg 39%
    14:00 +33°C° 0 mm 3 m/S 751 mmHg 39%
    15:00 +33°C° 0 mm 3 m/S 751 mmHg 39%
    16:00 +31°C° 0 mm 3 m/S 751 mmHg 40%
    17:00 +31°C° 0 mm 3 m/S 751 mmHg 40%
    18:00 +30°C° 0 mm 3 m/S 751 mmHg 44%
    19:00 +29°C° 0 mm 3 m/S 751 mmHg 48%
    20:00 +27°C° 0 mm 3 m/S 751 mmHg 52%
    21:00 +26°C° 0 mm 3 m/S 751 mmHg 55%
    22:00 +26°C° 0 mm 3 m/S 752 mmHg 58%
    23:00 +25°C° 0 mm 3 m/S 752 mmHg 62%

    übermorgen, 20 Juli, Freitag

    Zeit Temperatur Niederschläge Wind Luftdruck Luftfeuchtigkeit
    00:00 +24°C° 0 mm 3 m/S 752 mmHg 65%
    01:00 +24°C° 0 mm 3 m/S 752 mmHg 67%
    02:00 +24°C° 0 mm 3 m/S 751 mmHg 70%
    03:00 +24°C° 0 mm 3 m/S 751 mmHg 72%
    04:00 +22°C° 0 mm 3 m/S 751 mmHg 73%
    05:00 +23°C° 0 mm 2 m/S 751 mmHg 75%
    06:00 +25°C° 0,1 mm 3 m/S 752 mmHg 67%
    07:00 +27°C° 0,1 mm 3 m/S 752 mmHg 59%
    08:00 +30°C° 0,1 mm 3 m/S 752 mmHg 52%
    09:00 +32°C° 0,1 mm 4 m/S 752 mmHg 48%
    10:00 +32°C° 0,1 mm 4 m/S 752 mmHg 44%
    11:00 +33°C° 0,1 mm 4 m/S 752 mmHg 40%
    12:00 +34°C° 0 mm 4 m/S 752 mmHg 40%
    13:00 +34°C° 0 mm 4 m/S 752 mmHg 40%
    14:00 +34°C° 0 mm 4 m/S 752 mmHg 40%
    15:00 +33°C° 0 mm 4 m/S 752 mmHg 41%
    16:00 +33°C° 0 mm 4 m/S 752 mmHg 43%
    17:00 +33°C° 0 mm 4 m/S 752 mmHg 44%
    18:00 +32°C° 0,1 mm 4 m/S 752 mmHg 48%
    19:00 +29°C° 0,1 mm 4 m/S 752 mmHg 53%
    20:00 +28°C° 0,1 mm 4 m/S 752 mmHg 58%
    21:00 +27°C° 0,1 mm 4 m/S 753 mmHg 61%
    22:00 +26°C° 0,1 mm 4 m/S 753 mmHg 64%
    23:00 +26°C° 0,1 mm 4 m/S 753 mmHg 67%

    21 Juli, Samstag

    Zeit Temperatur Niederschläge Wind Luftdruck Luftfeuchtigkeit
    00:00 +25°C° 0 mm 4 m/S 753 mmHg 69%
    01:00 +25°C° 0 mm 3 m/S 753 mmHg 71%
    02:00 +24°C° 0 mm 3 m/S 753 mmHg 73%
    03:00 +24°C° 0 mm 3 m/S 753 mmHg 74%
    04:00 +24°C° 0 mm 3 m/S 753 mmHg 75%
    05:00 +24°C° 0 mm 2 m/S 753 mmHg 76%
    06:00 +25°C° 0 mm 2 m/S 753 mmHg 70%
    07:00 +27°C° 0 mm 3 m/S 753 mmHg 64%
    08:00 +29°C° 0 mm 3 m/S 753 mmHg 58%
    09:00 +30°C° 0 mm 3 m/S 754 mmHg 54%
    10:00 +31°C° 0 mm 3 m/S 754 mmHg 50%
    11:00 +33°C° 0 mm 3 m/S 754 mmHg 45%
    12:00 +33°C° 0 mm 3 m/S 754 mmHg 45%
    13:00 +33°C° 0 mm 3 m/S 754 mmHg 45%
    14:00 +33°C° 0 mm 3 m/S 753 mmHg 45%
    15:00 +33°C° 0 mm 3 m/S 753 mmHg 46%
    16:00 +31°C° 0 mm 3 m/S 753 mmHg 46%
    17:00 +31°C° 0 mm 3 m/S 753 mmHg 47%
    18:00 +30°C° 0 mm 3 m/S 754 mmHg 51%
    19:00 +29°C° 0 mm 3 m/S 754 mmHg 56%
    20:00 +28°C° 0 mm 4 m/S 754 mmHg 60%
    21:00 +27°C° 0 mm 4 m/S 754 mmHg 64%
    22:00 +26°C° 0 mm 4 m/S 754 mmHg 68%
    23:00 +26°C° 0 mm 4 m/S 754 mmHg 72%

    22 Juli, Sonntag

    Zeit Temperatur Niederschläge Wind Luftdruck Luftfeuchtigkeit
    00:00 +25°C° 0,2 mm 3 m/S 754 mmHg 74%
    01:00 +25°C° 0,2 mm 3 m/S 754 mmHg 76%
    02:00 +24°C° 0,2 mm 3 m/S 754 mmHg 78%
    03:00 +24°C° 0 mm 2 m/S 754 mmHg 79%
    04:00 +24°C° 0 mm 2 m/S 754 mmHg 80%
    05:00 +24°C° 0 mm 2 m/S 754 mmHg 82%
    06:00 +25°C° 0 mm 2 m/S 754 mmHg 75%
    07:00 +27°C° 0 mm 2 m/S 754 mmHg 68%
    08:00 +28°C° 0 mm 2 m/S 754 mmHg 62%
    09:00 +30°C° 0 mm 2 m/S 754 mmHg 56%
    10:00 +31°C° 0 mm 3 m/S 754 mmHg 51%
    11:00 +33°C° 0 mm 3 m/S 753 mmHg 46%
    12:00 +33°C° 0 mm 3 m/S 753 mmHg 44%
    13:00 +34°C° 0 mm 3 m/S 753 mmHg 42%
    14:00 +34°C° 0 mm 3 m/S 753 mmHg 41%
    15:00 +34°C° 0 mm 3 m/S 753 mmHg 42%
    16:00 +33°C° 0 mm 3 m/S 753 mmHg 43%
    17:00 +33°C° 0 mm 3 m/S 753 mmHg 44%
    18:00 +31°C° 0 mm 3 m/S 753 mmHg 48%
    19:00 +29°C° 0 mm 3 m/S 753 mmHg 52%
    20:00 +28°C° 0 mm 3 m/S 753 mmHg 56%
    21:00 +27°C° 0 mm 3 m/S 753 mmHg 59%
    22:00 +27°C° 0 mm 3 m/S 753 mmHg 61%
    23:00 +26°C° 0 mm 3 m/S 753 mmHg 63%

    23 Juli, Montag

    Zeit Temperatur Niederschläge Wind Luftdruck Luftfeuchtigkeit
    00:00 +26°C° 0 mm 3 m/S 753 mmHg 65%
    01:00 +25°C° 0 mm 2 m/S 753 mmHg 66%
    02:00 +25°C° 0 mm 2 m/S 753 mmHg 68%
    03:00 +25°C° 0 mm 2 m/S 753 mmHg 68%
    04:00 +25°C° 0 mm 2 m/S 753 mmHg 69%
    05:00 +25°C° 0 mm 1 m/S 753 mmHg 70%
    06:00 +27°C° 0 mm 1 m/S 753 mmHg 64%
    07:00 +28°C° 0 mm 1 m/S 753 mmHg 59%
    08:00 +30°C° 0 mm 1 m/S 753 mmHg 53%
    09:00 +31°C° 0 mm 1 m/S 753 mmHg 49%
    10:00 +32°C° 0 mm 1 m/S 753 mmHg 44%
    11:00 +33°C° 0 mm 1 m/S 753 mmHg 40%
    12:00 +33°C° 0 mm 1 m/S 753 mmHg 39%
    13:00 +33°C° 0 mm 1 m/S 752 mmHg 38%
    14:00 +34°C° 0 mm 2 m/S 752 mmHg 37%
    15:00 +34°C° 0 mm 2 m/S 752 mmHg 37%
    16:00 +34°C° 0 mm 2 m/S 752 mmHg 38%
    17:00 +34°C° 0 mm 2 m/S 752 mmHg 38%
    18:00 +32°C° 0 mm 2 m/S 752 mmHg 42%
    19:00 +30°C° 0 mm 2 m/S 753 mmHg 45%
    20:00 +29°C° 0 mm 2 m/S 753 mmHg 48%
    21:00 +28°C° 0 mm 2 m/S 753 mmHg 51%
    22:00 +28°C° 0 mm 2 m/S 753 mmHg 54%
    23:00 +27°C° 0 mm 2 m/S 753 mmHg 56%
    Mehr zeigen